Погода в Балахнинском

Россия / Иркутская область     58°00′37″N   114°16′35″E
темп.,
°C
ветер,
м/с
пор.,
м/с
влажн.,
%
обл.,
%
осадки,
мм/ч
давл.,
гПа
погр.,
м
24 января, пн
пн2423:00−32всв1110078 0.0 10419
02:00−33всв1110083 0.0 10419
05:00−34всв1110082 0.0 10409
08:00−35всв1110083 0.0 10409
11:00−28ююв009997 0.0 103871
14:00−24ююз119573 0.0 1035124
17:00−30с1110022 0.0 10379
20:00−32ссв1110071 0.0 10389
25 января, вт
вт2523:00−33ссв1110090 0.0 10399
02:00−33с1110092 0.0 104010
05:00−33с0010097 0.0 104010
08:00−33ссв0010094 0.1 104112
11:00−28юз019795 0.1 103993
14:00−24юз119493 0.1 1038163
17:00−26з009995 0.0 10389
20:00−27ссв1110091 0.0 104010
26 января, ср
ср2623:00−28св1110088 0.0 10419
02:00−29св1110088 0.1 104110
05:00−29всв1110089 0.1 104111
08:00−31св1110097 0.1 10439
11:00−26юв009791 0.0 1042105
14:00−23ююз009493 0.1 1040186
17:00−29св1110075 0.0 10429
20:00−31св2110088 0.0 10449
27 января, чт
чт2723:00−30св1110091 0.0 10449
02:00−31св1110094 0.1 10459
05:00−33св1110098 0.0 10469
08:00−35св1110098 0.1 10479
11:00−29ююз009896 0.0 104685
14:00−25зюз119476 0.0 1044156
17:00−30с1110024 0.0 10469
20:00−32ссв1110084 0.0 10489
28 января, пт
пт2823:00−33св1110081 0.0 10489
02:00−34св1110069 0.0 10499
05:00−35св1110072 0.0 10499
08:00−35св1110074 0.0 10499
11:00−30юз009789 0.0 104791
14:00−25юз119480 0.0 1044158
17:00−30ссв1110041 0.0 10459
20:00−33св1110060 0.0 10469